RH
40 44 37 34 32 34 35 33 38 34 35 32 34 28 26 24 24 23 22 22 24 23 25 27 30 29 28 28 26 20 24 30 30 30 28 25 29 30 34 35 32 27 23 19
36 38 38 37 32 29 31 33 34 31 31 32 31 32 29 28 26 26 26 27 26 25 26 29 34 38 35 31 30 27 23 31 33 32 30 25 26 31 38 42 43 42 36 26
42 40 43 44 30 32 31 29 27 27 24 24 25 26 27 28 28 29 28 28 32 31 34 36 40 43 41 38 34 34 28 27 35 35 30 24 26 34 44 43 44 44 45 45
49 49 68 33 35 32 31 30 29 26 26 27 28 28 29 35 34 35 34 34 33 32 31 32 36 40 43 43 39 37 33 29 35 35 30 30 38 46 46 46 45 45 46 50
57 58 41 35 45 44 38 34 34 32 32 34 37 38 36 38 37 39 38 38 38 34 33 33 33 35 35 36 37 39 38 32 33 37 36 42 46 48 48 47 46 46 46 51
72 76 78 48 48 47 53 62 51 49 44 42 47 46 40 41 40 41 41 39 36 35 33 33 33 32 32 31 33 38 40 39 34 40 44 50 51 52 51 49 47 47 48 50
93 94 82 60 57 57 70 54 48 49 44 41 45 44 41 39 39 41 42 40 38 35 35 34 33 32 32 32 34 37 41 43 43 36 42 47 53 53 52 51 49 49 52 52
100 97 90 70 68 69 60 57 53 54 52 49 47 47 47 49 47 44 43 42 41 42 39 38 38 37 35 35 37 44 47 48 49 48 44 45 47 48 49 50 51 51 51 44
77 68 55 53 65 69 65 64 60 61 61 59 58 55 52 54 53 52 49 49 50 51 51 51 50 51 46 41 40 43 50 56 58 56 54 54 52 52 52 49 44 46 53 51
84 90 75 68 64 64 66 73 76 71 66 68 69 68 67 65 64 63 59 57 59 58 59 58 53 53 55 56 50 44 42 42 42 41 40 39 39 38 37 36 39 42 46 48
98 95 91 84 74 72 72 75 77 76 74 75 76 76 77 75 73 72 71 73 72 71 68 65 62 57 54 60 64 62 62 60 58 57 56 58 58 55 54 54 54 52 55 58
97 95 93 90 86 80 85 88 88 90 91 90 89 88 87 85 86 86 88 92 98 98 92 87 83 80 79 77 76 77 77 79 82 80 77 75 75 74 74 78 80 84 90 92
96 97 97 99 100 100 100 100 100 100 99 99 98 99 97 95 92 88 88 89 85 78 68 65 65 68 76 75 69 74 68 66 62 69 78 78 68 62 62 67 75 85 91 94
96 96 96 95 95 96 96 96 96 96 96 96 95 94 91 86 82 81 79 76 72 70 70 52 47 45 45 46 47 51 48 51 54 56 59 62 66 78 90 94 92 94 95 100
97 96 96 95 96 96 96 97 96 97 97 96 95 94 90 84 71 68 66 64 58 50 45 42 41 41 40 40 45 63 78 70 65 62 63 67 70 73 81 95 97 97 96 94
99 98 99 99 96 96 96 96 97 97 97 98 96 95 91 87 70 58 60 59 55 48 42 38 36 35 36 38 42 90 96 87 88 90 83 80 72 78 88 92 90 88 81 77
99 100 100 99 98 97 97 96 94 92 96 98 97 87 77 82 90 77 62 53 51 47 38 32 31 40 39 35 34 67 96 96 98 95 91 97 99 100 99 97 96 96 95 91
100 100 100 100 100 99 99 96 96 96 96 95 98 98 90 94 94 96 92 72 46 37 33 29 28 29 29 30 32 42 60 83 90 97 100 100 100 98 98 98 98 99 99 89
100 99 98 98 97 96 98 99 99 99 100 95 93 98 98 98 97 90 68 56 51 44 41 40 41 42 52 63 69 81 96 100 100 100 100 100 100 100 100 99 98 84 51 30
88 85 82 80 80 81 78 76 77 78 86 92 93 93 93 95 88 73 65 58 57 56 58 63 64 69 81 94 99 98 97 98 100 100 100 100 100 100 100 83 42 27 25 26
58 58 58 56 50 48 44 40 42 47 56 63 60 63 76 87 92 88 73 67 78 71 76 81 84 89 92 100 100 97 100 100 100 100 100 100 100 84 60 38 32 30 30 30
44 44 46 51 54 55 56 52 48 41 34 30 29 39 50 53 54 51 58 63 81 88 87 89 94 98 99 99 98 100 100 100 100 100 100 97 80 52 35 34 35 36 36 36
39 38 37 41 44 48 51 55 55 48 43 42 38 30 26 39 65 60 59 84 82 91 88 96 100 100 100 99 100 100 100 100 100 100 95 68 42 38 40 43 44 44 41 36
41 38 36 35 35 42 45 52 58 56 53 53 50 44 37 28 26 42 77 100 100 100 96 96 100 100 100 100 100 100 100 100 86 59 50 45 44 50 54 54 50 43 36 27
38 39 42 44 42 38 50 61 62 65 64 60 56 52 46 38 30 32 34 65 100 100 100 100 100 100 100 98 99 99 83 52 42 44 49 59 68 70 64 53 43 30 22 24
41 38 38 45 53 48 52 79 82 87 80 68 62 56 50 43 37 34 35 41 74 97 97 100 100 100 100 92 75 55 43 47 54 68 90 91 83 69 54 38 27 29 48 57
60 62 62 73 74 65 76 99 100 95 90 80 66 61 52 45 42 42 46 54 85 100 97 99 100 100 100 98 85 69 64 70 97 100 100 90 68 46 34 45 65 77 65 50
Wind_Speed
23 15 10 13 17 32 46 49 26 35 41 37 24 17 24 29 27 25 25 30 37 34 35 37 37 37 37 36 32 31 32 31 31 33 34 35 35 32 28 26 26 28 28 28
22 28 29 27 23 23 23 32 49 49 44 29 27 29 36 36 39 42 44 44 42 42 43 47 48 43 45 42 41 40 37 34 34 36 38 38 37 35 32 28 28 29 31 33
12 17 17 25 43 38 37 39 39 46 49 41 45 46 46 45 45 47 49 47 43 42 40 42 45 44 44 45 43 42 41 40 40 38 41 41 40 40 35 32 32 34 35 37
9 9 6 31 25 28 35 39 43 54 53 49 49 46 44 38 43 45 47 46 46 49 51 47 42 46 50 51 49 47 45 42 41 40 43 43 44 43 38 36 35 37 40 42
11 21 33 39 29 31 37 48 45 49 48 46 41 36 42 38 39 40 37 36 35 34 36 34 34 36 38 45 47 50 49 46 43 43 45 48 47 43 42 42 43 43 45 47
27 11 13 53 44 36 34 52 46 45 45 40 31 39 40 36 36 34 27 27 27 25 27 29 28 28 30 33 37 43 46 48 49 45 49 52 50 48 46 47 48 49 52 51
41 27 31 44 36 19 20 23 21 18 19 15 24 30 27 22 23 23 24 23 25 28 29 29 29 29 29 30 30 33 39 44 49 51 49 56 58 57 56 55 56 57 55 52
33 26 26 37 25 32 38 35 31 29 26 27 30 34 40 38 33 31 33 35 33 28 29 32 32 32 32 31 32 32 34 39 42 46 49 51 54 58 59 60 60 57 52 50
28 29 39 35 39 36 40 38 38 40 40 39 37 36 35 35 35 35 36 33 31 36 38 34 31 28 30 32 33 33 33 35 38 41 44 47 50 52 53 52 50 48 48 50
33 35 36 36 38 40 37 37 38 40 39 38 39 39 39 37 37 36 36 38 42 39 37 34 36 36 35 33 35 34 33 34 35 35 35 37 38 39 40 41 42 43 43 43
40 41 35 39 47 45 43 44 44 40 39 39 40 40 40 40 40 40 40 42 44 43 41 41 41 41 41 39 38 38 39 40 41 41 42 42 41 41 41 41 42 43 43 44
36 44 48 47 44 46 47 47 43 40 40 41 41 43 44 44 44 45 45 43 40 39 39 40 40 41 41 41 41 42 42 42 42 42 42 42 42 42 43 44 45 46 49 50
38 36 39 46 48 46 45 43 42 41 42 39 37 36 34 33 35 37 36 34 30 29 29 32 34 36 40 40 39 40 39 38 38 37 38 39 39 40 42 44 45 45 46 46
30 30 28 25 28 28 29 31 32 33 33 33 35 36 36 38 39 39 38 39 40 41 39 34 33 35 37 38 39 40 41 41 42 42 42 42 42 43 43 44 44 45 45 46
34 36 37 38 38 40 42 42 41 40 38 38 38 37 38 38 37 36 35 36 38 37 37 37 36 37 38 40 41 41 41 41 40 41 43 43 42 42 42 43 43 42 43 43
34 34 34 33 32 36 37 37 36 38 39 40 39 37 37 36 37 37 38 39 39 39 39 39 39 40 41 43 44 45 44 44 45 45 47 47 46 45 43 43 42 41 40 40
26 28 30 33 35 36 38 41 42 44 45 45 42 38 38 39 41 40 39 40 42 44 45 45 45 46 46 45 46 48 49 49 49 49 48 49 49 47 45 44 41 40 39 38
23 24 26 28 29 31 33 37 40 41 42 44 43 42 41 41 43 44 44 46 46 47 47 47 47 47 47 47 47 47 48 49 48 47 46 44 43 42 41 39 38 38 36 35
17 18 21 23 25 28 29 30 33 36 37 40 42 42 41 42 44 45 44 44 44 46 47 49 49 49 49 47 46 45 44 43 42 42 41 41 40 39 37 36 34 33 33 32
22 24 25 26 27 29 30 30 31 30 30 33 35 35 36 39 40 39 40 40 41 42 44 46 47 47 47 46 45 43 42 40 40 39 39 39 37 34 32 30 30 30 30 32
35 33 31 31 30 29 30 31 31 31 32 32 32 32 33 34 35 36 37 37 36 38 40 41 41 41 42 41 41 41 39 38 37 36 36 33 29 28 29 29 29 30 31 32
46 43 41 39 37 34 33 32 33 34 34 34 35 36 36 35 35 36 36 37 36 35 36 37 36 34 35 36 36 35 35 34 33 31 27 26 26 27 28 28 29 31 32 34
55 51 49 46 43 41 37 35 34 35 34 34 35 36 38 40 39 38 36 34 34 33 34 33 32 31 30 32 32 30 30 28 25 23 24 26 28 28 28 29 30 32 34 35
51 49 46 45 45 44 42 37 36 36 35 34 34 35 36 37 38 39 38 34 32 31 32 31 31 30 29 30 30 27 23 21 23 25 27 27 28 28 29 30 32 33 35 36
45 45 44 41 40 40 39 38 36 34 34 34 33 33 34 35 35 31 36 35 33 32 30 28 28 28 28 28 23 21 23 24 25 25 26 27 28 29 30 31 32 34 35 34
36 37 36 34 34 33 32 33 32 30 32 32 31 30 31 31 32 32 30 31 31 31 29 26 25 25 26 24 22 23 24 24 25 25 27 27 28 29 30 31 32 32 31 32
34 31 27 22 24 25 26 25 26 27 27 27 27 26 29 28 28 28 27 27 27 26 27 26 25 24 23 24 23 22 23 24 25 25 25 27 28 29 30 29 30 32 35 38
Wind_Direction
221 225 219 233 237 231 224 227 223 247 244 240 233 207 216 226 232 237 243 257 273 277 274 273 273 270 268 268 269 264 259 253 252 252 248 244 247 255 259 265 272 273 273 270
237 242 250 254 244 240 244 244 243 249 250 246 250 249 251 249 255 263 266 272 273 271 270 270 270 263 259 259 260 256 258 253 253 255 250 243 244 251 257 263 271 275 278 277
248 250 259 270 246 244 248 253 256 254 257 265 263 264 265 266 269 270 274 276 275 271 266 267 258 253 252 250 251 251 251 250 250 251 246 241 242 246 251 256 265 273 276 277
242 229 230 251 264 256 252 258 260 262 263 265 270 273 275 273 271 274 278 274 266 262 261 259 258 255 254 251 249 248 248 249 248 247 242 239 241 244 248 255 264 271 274 274
221 225 253 255 247 251 253 262 261 263 264 268 273 273 268 269 269 269 265 266 269 266 263 262 259 260 260 258 258 257 252 248 248 244 241 239 240 244 251 258 265 272 276 272
234 230 240 264 270 266 264 264 268 267 272 272 264 259 265 264 262 267 268 259 260 265 266 265 264 263 263 261 259 256 253 249 245 245 239 240 242 247 254 261 269 272 276 273
230 236 250 252 255 245 218 254 264 264 270 267 252 251 259 267 270 254 241 254 270 272 271 273 272 272 271 270 262 256 254 253 250 247 245 243 245 250 256 262 269 273 274 268
224 232 248 250 253 244 249 243 252 254 250 252 256 260 269 272 272 263 268 277 272 265 270 273 272 271 272 270 267 260 254 253 253 251 251 253 254 256 261 265 268 271 269 267
222 234 242 249 249 246 258 257 251 256 257 258 258 260 264 269 271 270 270 268 265 275 278 276 271 270 265 264 263 261 258 255 253 254 254 255 257 260 263 265 266 265 264 265
235 236 237 244 251 253 249 251 251 254 254 255 256 258 260 262 267 267 263 264 274 277 276 272 273 274 273 267 262 262 261 258 256 255 257 259 261 263 265 265 266 265 264 263
230 235 239 242 247 248 250 252 252 250 250 253 255 255 256 258 258 258 259 264 267 268 268 269 271 271 272 273 270 266 265 264 264 264 264 264 263 263 264 264 264 264 263 262
232 236 238 239 241 245 247 248 249 249 251 253 254 254 256 255 255 256 259 261 262 263 264 265 267 268 270 271 272 272 270 269 269 269 267 267 266 265 264 265 265 266 267 268
232 233 232 235 238 239 241 244 246 247 250 252 252 251 252 255 258 261 258 257 262 268 273 275 277 278 276 277 278 277 277 277 277 277 274 272 274 276 277 278 276 274 272 271
246 248 246 243 241 242 241 243 242 241 241 245 249 253 257 262 265 267 267 268 273 277 282 279 273 272 271 270 270 271 274 275 275 275 273 271 270 269 269 269 268 267 266 266
244 247 251 251 249 248 250 250 246 241 244 248 250 256 262 266 270 273 274 272 271 269 270 270 269 268 267 267 266 265 266 264 264 268 270 269 268 268 268 268 268 268 268 268
241 242 245 248 250 252 251 250 252 259 261 258 259 268 269 267 263 260 262 261 262 263 263 264 266 266 264 263 265 266 262 263 267 271 271 269 269 267 266 265 266 266 266 267
252 252 252 253 254 256 257 260 261 261 258 259 262 257 256 256 257 256 260 263 262 261 263 264 265 265 267 268 267 267 269 270 272 274 274 272 269 267 265 264 263 266 269 268
267 266 264 263 262 261 263 262 261 261 262 264 262 258 259 260 259 256 258 267 268 267 266 266 266 267 267 268 269 269 270 270 270 270 269 267 265 264 264 265 265 265 265 266
294 287 282 280 277 273 272 271 269 268 268 266 265 264 263 262 261 261 263 265 265 265 265 265 266 266 268 269 269 268 268 267 265 264 263 262 262 262 263 263 263 263 263 265
301 296 292 286 283 280 277 276 275 274 275 273 271 270 269 268 266 266 265 264 266 267 267 266 266 266 267 268 268 267 266 264 263 262 261 260 259 259 260 260 260 261 265 268
299 295 290 286 282 280 277 274 272 271 270 271 273 273 272 272 271 269 271 269 269 270 270 268 267 267 267 266 266 265 263 260 258 257 256 255 254 254 256 259 263 266 269 273
296 292 289 286 282 278 276 276 274 271 269 268 266 265 266 267 268 269 270 271 271 271 269 267 265 262 262 261 261 261 260 258 255 252 249 251 254 257 261 265 269 272 275 277
292 289 285 281 278 276 274 273 273 273 272 270 269 268 265 261 259 260 262 265 265 267 268 266 262 259 258 258 258 257 255 252 249 251 254 256 258 261 266 270 273 276 278 280
288 284 280 276 272 270 269 267 267 268 269 269 269 270 270 269 267 266 264 263 260 258 259 262 262 258 256 255 253 249 248 248 250 252 255 259 263 268 272 275 277 279 281 284
291 286 281 276 270 264 261 260 259 260 262 264 266 267 269 270 269 266 262 263 263 261 258 255 254 254 251 249 250 251 251 250 251 254 259 263 269 273 275 279 281 283 284 286
304 294 284 273 268 263 257 255 256 256 257 258 262 266 268 269 271 269 264 258 255 260 260 257 251 249 250 250 246 246 248 250 253 258 264 269 273 276 279 281 282 282 282 284
317 313 293 280 262 256 253 251 252 251 256 260 262 265 266 267 268 267 263 257 251 249 254 256 250 247 247 248 248 247 248 251 260 266 271 276 279 282 283 282 279 278 281 285